Location: Unspecified
(0.0000°N, 0.0000°E)
Time: 20:54:50
(UTC+00:00)

FREGAT DEB - Visible Passes

Search period start: 12 January 2025 00:00
Search period end: 22 January 2025 00:00
Orbit: 742 x 4629 km, 51.5° (Epoch: 11 January)

Date Brightness Start Highest point End Pass type
(mag) Time Alt. Az. Time Alt. Az. Time Alt. Az.
12 Jan ? 00:52:34 60° SSW 00:52:34 60° SSW 01:13:38 10° SSE visible
12 Jan ? 03:15:40 16° WSW 03:24:10 18° SW 03:39:22 10° SSW visible
12 Jan ? 22:20:26 22° ESE 22:20:26 22° ESE 22:27:49 10° ESE visible
13 Jan ? 00:43:31 59° SSW 00:43:31 59° SSW 01:04:22 10° SSE visible
13 Jan ? 03:06:37 15° WSW 03:15:03 18° SW 03:29:58 10° SSW visible
13 Jan ? 22:11:17 22° ESE 22:11:17 22° ESE 22:18:39 10° SE visible
14 Jan ? 00:34:22 58° SSW 00:34:22 58° SSW 00:55:07 10° SSE visible
14 Jan ? 02:57:26 15° WSW 03:05:55 17° SW 03:20:34 10° SSW visible
14 Jan ? 21:25:31 10° N 22:01:59 22° ESE 22:09:27 10° SE visible
15 Jan ? 00:25:03 57° SSW 00:25:03 57° SSW 00:45:51 10° SSE visible
15 Jan ? 02:48:07 14° WSW 02:56:48 17° SW 03:11:10 10° SSW visible
15 Jan ? 21:16:23 10° N 21:52:32 23° ESE 22:00:14 10° SE visible
16 Jan ? 00:15:35 56° SSW 00:15:35 56° SSW 00:36:34 10° SSE visible
16 Jan ? 02:38:38 14° WSW 02:47:41 16° SW 03:01:44 10° SSW visible
16 Jan ? 21:07:14 10° N 21:42:53 23° ESE 21:51:02 10° SE visible
17 Jan ? 00:05:55 56° SSW 00:05:55 56° SSW 00:27:16 10° SSE visible
17 Jan ? 02:28:56 13° WSW 02:38:34 16° SW 02:52:16 10° SSW visible
17 Jan ? 20:58:06 10° N 21:33:00 25° ESE 21:41:48 10° SE visible
17 Jan ? 23:55:59 56° SSW 23:55:59 56° SSW 00:17:57 10° SSE visible
18 Jan ? 02:18:59 12° WSW 02:29:27 15° SW 02:42:47 10° SSW visible
18 Jan ? 20:48:58 10° N 21:22:46 26° ESE 21:32:33 10° SE visible
18 Jan ? 23:19:07 10° NW 23:45:43 57° SSW 00:08:38 10° SSE visible
19 Jan ? 02:08:40 11° WSW 02:20:21 15° SW 02:33:16 10° SSW visible
19 Jan ? 20:39:50 10° N 21:12:02 29° ESE 21:23:18 10° SE visible
19 Jan ? 23:10:02 10° NW 23:34:55 58° SW 23:59:18 10° SSE visible
20 Jan ? 01:58:33 10° WSW 02:11:14 15° SW 02:23:44 10° SSW visible
20 Jan ? 20:30:42 10° NNW 21:00:23 33° ESE 21:14:02 10° SE visible
20 Jan ? 23:00:58 10° NW 23:23:08 59° SW 23:49:58 10° SSE visible
21 Jan ? 01:49:59 10° WSW 02:02:08 14° SW 02:14:09 10° SSW visible
21 Jan ? 20:21:33 10° NNW 20:38:45 50° ENE 21:04:45 10° SE visible
21 Jan ? 22:51:53 10° NW 23:13:04 58° SW 23:40:36 10° SSE visible
